Regional Weather Roundup
Issued by NWS Charleston, SC

Current Version | Previous Version | Graphics & Text | Print | Product List | Glossary On
Versions: 1 2 3 4 5 6 7 8 9 10 11 12 13 14 15 16 17 18 19 20 21 22 23 24 25 26 27 28 29 30 31 32 33 34 35 36 37 38 39 40 41 42 43 44 45 46 47 48 49 50
000 ASUS42 KCHS 031312 RWRCHS REGIONAL WEATHER ROUNDUP NATIONAL WEATHER SERVICE CHARLESTON SC 900 AM EDT THU SEP 03 2015 NOTE: "FAIR" INDICATES FEW OR NO CLOUDS BELOW 12,000 FEET WITH NO SIGNIFICANT WEATHER AND/OR OBSTRUCTIONS TO VISIBILITY. NOT ALL STATIONS ARE QUALITY CONTROLLED BY THE NATIONAL WEATHER SERVICE. USE DATA WITH CAUTION...ESPECIALLY DEWPOINT OBSERVATIONS. SCZ027-030-031-034>040-042>050-031400- ...SOUTHEAST SOUTH CAROLINA... CITY SKY/WX TMP DP RH WIND PRES REMARKS N CHARLESTON PTSUNNY 79 72 79 NW5 29.98R WATERFRONT PRK N/A 79 73 82 CALM 29.94R MOUNT PLEASANT FAIR 79 75 89 CALM 29.97R JOHNS ISLAND FAIR 79 75 89 CALM 29.97S PINOPOLIS N/A 81 73 78 W5 29.89R MONCKS CORNER FAIR 77 73 88 CALM 29.97S SUMMERVILLE FAIR 77 73 88 CALM 29.98S BEAUFORT MCAS PTSUNNY 79 74 84 CALM 29.98S BEAUFORT ARPT CLOUDY 75 73 94 CALM 29.97F FOG HILTON HEAD IS NOT AVBL WALTERBORO MOSUNNY 79 73 83 CALM 29.99R ALLENDALE FAIR 79 75 89 CALM 29.99R ...SOUTHERN MIDLANDS AND PEE DEE... CITY SKY/WX TMP DP RH WIND PRES REMARKS GEORGETOWN NOT AVBL KINGSTREE NOT AVBL ORANGEBURG MOSUNNY 78 72 81 VRB3 29.99R BARNWELL FAIR 79 75 89 W5 30.00R AIKEN FAIR 77 72 83 W6 30.03R MANNING FAIR 77 72 83 CALM 29.97R COLUMBIA PTSUNNY 80 72 76 W7 29.98R SUMTER SUNNY 78 73 82 W7 29.96R FLORENCE MOSUNNY 79 73 82 CALM 29.96R MYRTLE BEACH MOSUNNY 81 73 78 CALM 29.98R N MYRTLE BEACH SUNNY 80 74 81 SW5 29.96R $$ GAZ063-065-086>088-099>101-113>116-118-119-134>141-150-031400- ...SOUTHEAST GEORGIA... CITY SKY/WX TMP DP RH WIND PRES REMARKS SAVANNAH ARPT PTSUNNY 78 73 84 NE7 29.98R HUNTER AAF MOSUNNY 76 76 100 N6 29.95R FORT STEWART DRIZZLE 77 73 88 NW6 29.97R STATESBORO PTSUNNY 76 76 100 NW5 30.00R SYLVANIA NOT AVBL CLAXTON NOT AVBL ...CSRA...CENTRAL AND FAR SOUTHEAST GEORGIA... CITY SKY/WX TMP DP RH WIND PRES REMARKS THOMSON CLOUDY 77 76 96 CALM 30.04R AUGUSTA-BUSH CLOUDY 77 74 90 CALM 29.99R AUGUSTA-DANIEL CLOUDY 79 72 79 NW3 30.01R SWAINSBORO FAIR 75 73 94 CALM 30.01R VIDALIA CLOUDY 77 73 88 NW3 30.01R EASTMAN FAIR 74 74 100 CALM 30.03R HAZLEHURST PTSUNNY 75 75 100 CALM 29.99R ALMA PTSUNNY 74 73 97 CALM 30.00R WAYCROSS MOSUNNY 78 77 99 CALM 30.04R JESUP CLOUDY 79 77 94 N3 30.00R BAXLEY PTSUNNY 77 75 94 NW3 30.00R BRUNSWICK CLOUDY 72 72 100 W3 29.99R SAINT SIMONS CLOUDY 75 75 100 W8 29.97R $$ SCZ027-028-034-036>038-045-046-048>050-GAZ119-141-031400- ...LAKE AND SUPPLEMENTAL COASTAL OBSERVATIONS... STATION/POSITION TIME TEMP WIND PRES WAVE SWELL AIR SEA DIR/SP/G HT/PER HT/PER/DIR (UTC) (F) (DEG/KT/KT) (MB) (FT/S) (FT/S/D) UPR LAKE MARION NOT AVBL WINYAH BAY 1145 76 270/ 2 1013.0 LAKE MURRAY 1200 76 310/ 3/ 4 1014.6R ACE BASIN NERRS NOT AVBL FORT PULASKI 1200 76 83 90/ 18/ 21 1014.8R SAPELO ISLAND 1200 76 300/ 6 1014.0R $$ ANZ835-935-AMZ111-154-330-350-352-354-370-450-454-472-031400- ...C-MAN AND BUOY OBSERVATIONS... STATION/POSITION TIME TEMP WIND PRES WAVE SWELL AIR SEA DIR/SP/G HT/PER HT/PER/DIR (UTC) (F) (DEG/KT/KT) (MB) (FT/S) (FT/S/D) BUOY 41004 1250 82 84 350/ 2/ 4 1014.2R 2/ 7 2/ 7 BUOY 41008 1250 79 84 300/ 12/ 12 1013.8R 2/ 4 2/100/ 8 FOLLY BEACH CMAN 1200 77 290/ 2/ 2 1014.7R CAPERS NEARSHORE 1208 80 300/ 4/ 6 1014.6R FRIPP NEARSHORE NOT AVBL STATION/POSITION TIME TEMP WIND PRES WAVE SWELL AIR SEA DIR/SP/G HT/PER HT/PER/DIR (UTC) (F) (DEG/KT/KT) (MB) (FT/S) (FT/S/D) 5E ST. MARYS GA 1221 85 N/A 2/ 8 FRYING PAN BUOY 1250 83 81 90/ 2/ 4 1014.4R 2/ 8 2/120/ 8 BUOY 41025 1250 79 85 10/ 10/ 12 1013.4R 2/ 9 2/ 60/ 9 CAPE LOOKOUT NC 1200 74 360/ 8/ 9 1013.2R BUOY 41002 1250 83 83 310/ 6/ 8 1014.1R 2/12 2/ 60/12 BUOY 41010 1220 84 86 240/ 12/ 14 1015.8R ST AUGUSTINE FL 1300 80 82 240/ 6/ 8 1016.0R $$

USA.gov is the U.S. government's official web portal to all federal, state and local government web resources and services.